This demonstration page uses our WeatherBlox Daily Observations layout. Learn more.

Left ArrowRight Arrow

Hourly Observations for October 2, 2015

Temp ( °F °C ) Dew Point ( °F °C ) Humidity (%) Winds ( mph kmh ) Pressure ( in mb ) Visibility ( mi km ) Precip ( " mm )
12:42 am 00:42 Cloudy with Heavy Rain 64 18 63 17 94 94 NNE 6 9 29.83 1010 2 3 0.00 0.00
12:53 am 00:53 Cloudy with Rain 66 18.9 64 17.8 93 93 NE 6 9 29.80 1009 3 5 0.19 4.83
1:00 am 01:00 Cloudy with Heavy Rain 66 19 64 18 94 94 N 3 6 29.80 1009 4 6 0.00 0.00
1:11 am 01:11 Cloudy with Heavy Rain 65 18.3 64 17.8 97 97 NNW 6 9 29.80 1009 3 5 0.08 2.03
1:53 am 01:53 Cloudy with Mist and Fog 65 18.3 63 17.2 93 93 NNE 7 11 29.78 1009 4 6 0.09 2.29
2:53 am 02:53 Cloudy 65 18.3 63 17.2 93 93 NE 9 15 29.78 1008 8 13 0.00 0.03
3:01 am 03:01 Cloudy with Light Rain 65 18.3 63 17.2 93 93 NE 9 15 29.80 1009 5 8 0.00 0.03
3:42 am 03:42 Cloudy with Light Rain 64 18 63 17 94 94 NE 7 11 29.80 1009 4 6 0.00 0.00
3:53 am 03:53 Cloudy with Light Rain 64 17.8 62 16.7 93 93 ENE 9 15 29.78 1008 3 5 0.01 0.25
4:03 am 04:03 Cloudy with Light Rain 64 18 63 17 94 94 NE 9 15 29.80 1009 8 13 0.00 0.00
4:33 am 04:33 Cloudy with Light Rain 63 17.2 60 15.6 90 90 NE 10 17 29.80 1009 10 16 0.00 0.03
4:43 am 04:43 Cloudy with Light Rain 63 17 59 15 88 88 NE 10 17 29.80 1009 10 16 0.00 0.00
4:53 am 04:53 Cloudy with Light Rain 63 17.2 59 15 87 87 NE 8 13 29.77 1008 10 16 0.00 0.03
5:21 am 05:21 Cloudy 62 16.7 58 14.4 86 86 NE 14 22 29.80 1009 10 16 0.00 0.03
5:53 am 05:53 Cloudy 62 16.7 58 14.4 86 86 NNE 10 17 29.78 1009 10 16 0.00 0.03
6:40 am 06:40 Cloudy 61 16 57 14 88 88 NE 9 15 29.80 1009 10 16 0.00 0.00
6:53 am 06:53 Cloudy 61 16.1 57 13.9 87 87 ENE 10 17 29.79 1009 10 16 0.00 0.00
7:21 am 07:21 Cloudy 61 16.1 57 13.9 87 87 NE 10 17 29.80 1009 10 16 0.00 0.00
7:48 am 07:48 Cloudy 61 16 57 14 88 88 NE 10 17 29.80 1009 10 16 0.00 0.00
7:53 am 07:53 Cloudy 61 16.1 56 13.3 84 84 NE 10 17 29.80 1009 10 16 0.00 0.00
8:08 am 08:08 Cloudy 61 16 55 13 83 83 NE 12 19 29.83 1010 10 16 0.00 0.00
8:53 am 08:53 Cloudy 62 16.7 56 13.3 80 80 ENE 10 17 29.81 1009 10 16 0.00 0.00
9:10 am 09:10 Cloudy 62 16.7 56 13.3 80 80 NE 10 17 29.83 1010 10 16 0.00 0.00
9:21 am 09:21 Cloudy 62 16.7 56 13.3 80 80 ENE 17 28 29.83 1010 10 16 0.00 0.00
9:53 am 09:53 Cloudy 63 17.2 56 13.3 78 78 ENE 14 22 29.80 1009 10 16 0.00 0.00
10:53 am 10:53 Cloudy 62 16.7 57 13.9 84 84 NNE 10 17 29.80 1009 9 14 0.00 0.00
11:21 am 11:21 Cloudy with Mist and Fog 61 16.1 57 13.9 87 87 NE 13 20 29.83 1010 6 10 0.00 0.00
11:29 am 11:29 Cloudy 62 16.7 57 13.9 84 84 ENE 10 17 29.83 1010 8 13 0.00 0.00
11:53 am 11:53 Cloudy 63 17.2 57 13.9 81 81 NE 12 19 29.81 1009 10 16 0.00 0.00
12:11 pm 12:11 Cloudy 65 18.3 57 13.9 76 76 ENE 12 19 29.83 1010 10 16 0.00 0.00
12:53 pm 12:53 Cloudy 65 18.3 56 13.3 73 73 NE 10 17 29.81 1009 10 16 0.00 0.00
1:00 pm 13:00 Cloudy 64 18 55 13 73 73 ENE 15 24 29.83 1010 10 16 0.00 0.00
1:53 pm 13:53 Cloudy 64 17.8 57 13.9 78 78 ENE 12 19 29.79 1009 10 16 0.00 0.00
2:53 pm 14:53 Cloudy 65 18.3 56 13.3 73 73 ENE 10 17 29.77 1008 10 16 0.00 0.00
3:53 pm 15:53 Cloudy 64 17.8 57 13.9 78 78 NE 7 11 29.75 1008 10 16 0.00 0.00
4:53 pm 16:53 Cloudy 64 17.8 57 13.9 78 78 NE 8 13 29.75 1008 10 16 0.00 0.00
5:53 pm 17:53 Cloudy 64 17.8 57 13.9 78 78 NE 13 20 29.75 1008 10 16 0.00 0.00
6:53 pm 18:53 Cloudy 62 16.7 58 14.4 86 86 NE 8 13 29.75 1008 7 11 0.00 0.03
7:53 pm 19:53 Cloudy with Light Rain 61 16.1 59 15 93 93 N 3 6 29.76 1008 7 11 0.01 0.25
8:53 pm 20:53 Cloudy 62 16.7 58 14.4 86 86 NE 8 13 29.77 1008 10 16 0.00 0.03
9:53 pm 21:53 Cloudy 61 16.1 58 14.4 90 90 NE 7 11 29.76 1008 8 13 0.00 0.03
10:16 pm 22:16 Cloudy 61 16 57 14 88 88 NE 6 9 29.77 1008 10 16 0.00 0.00

Powered by AerisWeather